Home   Weather   Białystok   Past weeks

Flag for Poland Past Weather in Białystok, Poland — Yesterday and Last 2 Weeks

Now
41 °F

Partly sunny.


Feels Like: 41 °F
Forecast: 35 / 43 °F
Wind: 2 mph from West

Location: Bialystok

Current Time: Mar 1, 2017 at 6:49:16 pm

Latest Report: Mar 1, 2017 at 5:00 pm


Visibility: 31 mi

Pressure: 29.61 "Hg

Humidity: 72%

Dew Point: 33 °F

Location of BiałystokLocation

Past Weather in Białystok — Graph

°F

Białystok Temperature Yesterday

Maximum temperature yesterday: 54 °F (at 2:00 pm)
Minimum temperature yesterday: 37 °F (at 6:00 am)
Average temperature yesterday: 45 °F

High & Low Weather Summary for the Past Weeks

 TemperatureHumidityPressure
High54 °F (Feb 28, 2:00 pm)98% (Feb 15, 3:00 am)30.63 "Hg (Feb 15, 3:00 am)
Low22 °F (Feb 17, 1:00 am)48% (Feb 25, 2:00 pm)29.06 "Hg (Feb 24, 4:00 am)
Average36 °F87%29.85 "Hg
* Reported Feb 14 5:00 pm — Mar 1 5:00 pm, Białystok, Weather by CustomWeather, © 2017

Note: Actual official high and low records may vary slightly from our data, if they occured in-between our weather recording intervals... More about our weather records

Advertising

Białystok Weather History for the Previous 24 Hours

Scroll right to see more
 ConditionsComfort  
Time TempWeatherWind HumidityBarometerVisibility
5:00 pm
Wed, Mar 1
41 °FPartly sunny.2 mph72%29.61 "Hg31 mi
4:00 pm44 °FOvercast.6 mph68%29.59 "Hg25 mi
3:00 pm45 °FOvercast.6 mph75%29.56 "Hg16 mi
2:00 pm45 °FOvercast.5 mph81%29.54 "Hg11 mi
1:00 pm45 °FOvercast.3 mph82%29.53 "Hg9 mi
12:00 pm46 °FLow clouds.2 mph89%29.50 "Hg8 mi
11:00 am43 °FLow clouds.3 mph92%29.50 "Hg7 mi
10:00 am42 °FLight rain. Low clouds.2 mph94%29.50 "Hg4 mi
9:00 am43 °FLight rain. Low clouds.3 mph95%29.47 "Hg4 mi
8:00 am42 °FLight rain. Overcast.3 mph96%29.44 "Hg4 mi
7:00 am41 °FLight rain. Overcast.2 mph94%29.44 "Hg4 mi
6:00 am42 °FLight rain. Overcast.3 mph82%29.44 "Hg6 mi
5:00 am40 °FOvercast.2 mph83%29.44 "Hg11 mi
4:00 am40 °FOvercast.2 mph87%29.47 "Hg9 mi
3:00 am39 °FOvercast.1 mph89%29.47 "Hg6 mi
2:00 am37 °FOvercast.1 mph90%29.53 "Hg6 mi
1:00 am39 °FOvercast.1 mph89%29.53 "Hg6 mi
12:00 am38 °FOvercast.2 mph91%29.54 "Hg6 mi
11:00 pm
Tue, Feb 28
38 °FOvercast.2 mph88%29.54 "Hg6 mi
10:00 pm40 °FPassing clouds.2 mph83%29.55 "Hg7 mi
9:00 pm46 °FOvercast.2 mph71%29.54 "Hg9 mi
8:00 pm47 °FOvercast.2 mph70%29.50 "Hg9 mi
7:00 pm49 °FOvercast.2 mph68%29.47 "Hg11 mi
6:00 pm50 °FOvercast.2 mph66%29.47 "Hg13 mi
Weather by CustomWeather, © 2017

See weather overviewHow to use our weather pages